Rechercher aéroport 
image banner adimage banner adimage banner ad
image banner ad

PS41 - Upmc-Horizon Hospital/Shenango Campus

Situé à Farrell, United States

ICAO - PS41, IATA -

Données fournies par Airmate  

Information générale

Coordonnées: N41°12'35" W80°28'8"
Élévation : 1121 feet MSL.
Variation magnétique : -09° East
Voir autres Aéroports à Pennsylvania

Données opérationnelles

Special qualification required
Heure actuelle UTC:
Heure actuelle locale:
Météo à : KYNG - Youngstown-Warren Rgnl ( 19 km )
METAR: KYNG 291551Z 25012KT 10SM FEW075 BKN090 OVC110 24/20 A2989 RMK AO2 SLP115 T02390200 $
TAF: KYNG 291120Z 2912/3012 20005KT P6SM VCSH OVC060 FM291400 19006KT 6SM -SHRA BR OVC045 TEMPO 2914/2918 VRB15G30KT 4SM TSRA OVC040CB FM291800 24010KT P6SM -SHRA VCTS OVC025CB FM292300 30006KT P6SM VCSH BKN050 FM300500 33005KT P6SM BKN035
Voir NOTAMs / SUP AIP / TFR affectant cet aéroport [VIEW]
Fréquences de communication: [VIEW]

Pistes:

Coordonnées de l'aéroport

Adresse: Farrell United States

Vue satellite de PS41